Regional Weather Roundup
Issued by NWS

Home | Current Version | Previous Version | Graphics & Text | Print | Product List | Glossary On
Versions: 1 2 3 4 5 6 7 8 9 10 11 12 13 14 15 16 17 18 19 20 21 22 23 24 25 26 27 28 29 30 31 32 33 34 35 36 37 38 39 40 41 42 43 44 45 46 47 48 49 50
000
ASUS43 KMKX 020511
RWRWI

WISCONSIN REGIONAL WEATHER ROUNDUP
NATIONAL WEATHER SERVICE MILWAUKEE/SULLIVAN WI
1200 AM CDT THU OCT 02 2014

NOTE: "FAIR" INDICATES FEW OR NO CLOUDS BELOW 12,000 FEET WITH NO
SIGNIFICANT WEATHER AND/OR OBSTRUCTIONS TO VISIBILITY.

WIZ001-002-006>008-014>016-023>028-020600-
NORTHWEST WISCONSIN

CITY           SKY/WX    TMP DP  RH WIND       PRES   REMARKS
SUPERIOR ARPT  CLOUDY    52  52  99 CALM      29.84R FOG
ASHLAND        CLOUDY    55  53  93 SW6       29.85S
HAYWARD        CLOUDY    55  54  96 SW5       29.86S FOG
SIREN          CLOUDY    54  54  98 CALM      29.84F FOG
CUMBERLAND     CLOUDY    54  52  94 CALM      29.84F FOG
RICE LAKE      CLOUDY    55  54  96 CALM      29.86F FOG
CHETEK         CLOUDY    55  55  99 CALM      29.85F FOG
LADYSMITH      MOCLDY    55  54  97 CALM      29.87F FOG
EAU CLAIRE     CLOUDY    55  54  96 NE5       29.84F FOG
MENOMONIE      CLOUDY    55  54  98 CALM      29.84F FOG
NEW RICHMOND   CLOUDY    56  56 100 CALM      29.83F FOG
OSCEOLA        CLOUDY    56  56 100 CALM      29.86S FOG
$$

WIZ003>005-009-010-017-018-020600-
NORTH CENTRAL WISCONSIN

CITY           SKY/WX    TMP DP  RH WIND       PRES   REMARKS
MANITOWISH WTR CLOUDY    54  54 100 S5        29.87F
ARBOR VITAE    CLOUDY    57  55  93 S6        29.88S FOG
WOODRUFF       CLOUDY    57  55  93 S6        29.88S FOG
RHINELANDER    CLOUDY    54  51  90 S5        29.89F
EAGLE RIVER    CLOUDY    54  53  97 CALM      29.88F FOG
LAND O LAKES   CLOUDY    54  52  93 S5        29.89F
PHILLIPS       MOCLDY    54  53  97 S3        29.86F
TOMAHAWK       CLOUDY    55  52  90 SE3       29.89S
MEDFORD        CLOUDY    55  53  93 SE5       29.86F
MERRILL        CLOUDY    55  53  94 SE5       29.88S
$$

WIZ029-030-035-036-043>047-020600-
CENTRAL WISCONSIN

CITY           SKY/WX    TMP DP  RH WIND       PRES   REMARKS
WAUSAU         CLOUDY    56  52  86 SE8       29.87F
MOSINEE        CLOUDY    54  54 100 SE7       29.89S
MARSHFIELD     CLOUDY    58  54  86 SE5       29.86F
STEVENS POINT  LGT RAIN  54  52  95 E6        29.89S
WAUPACA        CLOUDY    58  55  91 E5        29.89F
WAUTOMA        NOT AVBL
WISC RAPIDS    CLOUDY    57  55  93 SE5       29.88F
CAMP DOUGLAS   CLOUDY    61  61 100 SE6       29.85F
$$

WIZ011>013-019>022-031-037>040-048>050-020600-
NORTHEAST WISCONSIN

CITY           SKY/WX    TMP DP  RH WIND       PRES   REMARKS
ANTIGO         CLOUDY    52  51  96 S8        29.90S FOG
SHAWANO        CLOUDY    56  53  90 E3        29.91S
OCONTO         CLOUDY    55  55 100 CALM      29.90F
STURGEON BAY   NOT AVBL
GREEN BAY      CLOUDY    57  55  93 SE7       29.90F
MANITOWOC      NOT AVBL
APPLETON       CLOUDY    55  54  94 SE9       29.89F
CLINTONVILLE   CLOUDY    54  52  94 SE3       29.90F FOG
OSHKOSH        CLOUDY    58  56  93 SE3       29.88F
$$

WIZ032>034-041-042-053>061-020600-
SOUTHWEST WISCONSIN

CITY           SKY/WX    TMP DP  RH WIND       PRES   REMARKS
LA CROSSE      CLOUDY    61  57  87 CALM      29.82F
SPARTA         CLOUDY    61  57  88 CALM      29.84F
VIROQUA        CLOUDY    63  57  82 SE5       29.85S
BOSCOBEL       CLOUDY    65  59  81 CALM      29.84S
PRAIRIE DU CHI CLOUDY    65  58  78 CALM      29.83S
PLATTEVILLE    CLOUDY    64  60  88 E6        29.86F
$$

WIZ056-057-062-063-064-067-068-020600-
SOUTH CENTRAL WISCONSIN

CITY           SKY/WX    TMP DP  RH WIND       PRES   REMARKS
REEDSBURG      CLOUDY    62  55  79 CALM      29.85S
BARABOO/DELLS  CLOUDY    62  53  73 S5        29.86F
LONE ROCK      CLOUDY    68  57  68 E6        29.85S
MINERAL POINT  CLOUDY    63  57  82 SE6       29.87S
MADISON        CLOUDY    64  54  69 S7        29.87F
MIDDLETON      CLOUDY    64  54  69 SE7       29.87S
WATERTOWN      CLOUDY    62  55  78 SE5       29.87F
MONROE         CLOUDY    63  55  77 S7        29.86S
JANESVILLE     CLOUDY    64  54  68 SE8       29.87F
$$

WIZ051-052-058>065-066-070>072-020600-
SOUTHEAST WISCONSIN

CITY           SKY/WX    TMP DP  RH WIND       PRES   REMARKS
MILWAUKEE      CLOUDY    64  53  67 S12       29.90F
WAUKESHA       CLOUDY    61  50  67 SE12      29.90F
MILWAUKEE/TIMM CLOUDY    63  50  63 SE7       29.90F
RACINE         CLOUDY    63  54  72 S12       29.91F
BURLINGTON     CLOUDY    61  52  73 CALM      29.89F
KENOSHA        NOT AVBL
FOND DU LAC    CLOUDY    59  54  83 S8        29.88F
SHEBOYGAN      CLOUDY    60  55  83 S7        29.90F
WEST BEND      CLOUDY    61  52  72 SE3       29.89F
JUNEAU         CLOUDY    59  54  82 SE7       29.88F
$$

LSZ147-162-020600-
LAKE SUPERIOR

STATION/POSITION TIME  TEMP    WIND        PRES    WAVE
                       AIR SEA DIR/SP/G            HT/PER
                 (UTC) (F)     (DEG/KT/KT) (MB)    (FT/S)
W MID LAKE BUOY  0450   51 50  160/  4/  4 1010.5S   0
DEVILS ISLAND    0500   54     210/  4/  5 1010.7R
SAXON HARBOR     0440   52        CALM     1010.5S
$$

LMZ867-665-643>646-020600-
LAKE MICHIGAN

STATION/POSITION TIME  TEMP    WIND        PRES    WAVE
                       AIR SEA DIR/SP/G            HT/PER
                 (UTC) (F)     (DEG/KT/KT) (MB)    (FT/S)
CHAMBERS ISLAND  0400   56     150/  3/  6 1013.9F
S GREEN BAY BUOY 0500   57                 1013.3F
N MID LAKE BUOY  0450   58 58  160/ 10/ 12 1013.8F   2/ 4
NORTHPORT PIER   0400   56     150/  4/  8 1014.2S
KEWAUNEE LAKESHO 0400   55     180/  4/  4 1012.8F
SHEBOYGAN LAKESH 0500   58 56  160/  9/ 10 1012.8F
PORT WASHINGTON  0400   60     170/  2/  4 1013.5
ATWATER BUOY     0500   60     170/  8/ 10 1013.4F
MILWAUKEE LAKESH 0400   60     170/  5/  5   N/A
S MID LAKE BUOY  0450   63 62  140/ 17/ 21 1012.9F   2/ 4
KENOSHA   LAKESH 0500   62     160/ 11/ 14 1012.2F
$$

TC  - TEMPERATURE IN CELSIUS
VSB - VISIBILITY IN STATUTE MILES
WCI - WIND CHILL INDEX
HX  - HEAT INDEX



USA.gov is the U.S. government's official web portal to all federal, state and local government web resources and services.